Location: Wanzleben
(52.0609°N, 11.4408°E)
Time: 06:46:00
(UTC+00:00)

NOSS 2-2 (C) - Pass Details

Date: 18 September 2020
Orbit: 468 x 1740 km, 63.3° (Epoch: 19 October)

Event Time Altitude Azimuth Distance (km) Brightness Sun altitude
Rises 18:16:18 0° 192° (SSW) 2,500 6.7 -9.2°
Reaches altitude 10° 18:18:34 10° 178° (S) 1,628 5.6 -9.5°
Maximum altitude 18:21:32 26° 120° (ESE) 1,006 4.1 -10.0°
Drops below altitude 10° 18:24:47 10° 63° (ENE) 1,802 5.5 -10.5°
Sets 18:27:25 0° 51° (NE) 2,837 6.6 -10.8°
